SL-8 R/B

Satellite information

Favourite Embed

Satellite Type and Status

ROCKET BODYIN ORBIT

Key statistics

Satellite SL-8 R/B at a glance.

Uptime

14396

Days in orbit

Revolutions

≈ 14.4

Per day

Orbit

LEO

Low Earth Orbit

Inclination

74.0

Latest

Satellite identification and parameters

Extended collection of information and parameters for SL-8 R/B.

Object identification

Identified? True

Debris? False

Object name: SL-8 R/B

International designator: 1986-052B

Object number (NORAD): 16864

Object ID (CCSDS): 16864

Country: COMMONWEALTH OF INDEPENDENT STATES (CIS)

Current information (Y/N): Y

RCS size: LARGE

Orbital parameters

Period: 99.848 minutes

Inclination: 74.0283 deg

SMA: 7129.392 km

Apoapsis: 773.964 km

Periapsis: 728.551 km

RAAN: 115.5545 deg

Eccentricy: 0.0031849

Argument of periapsis: 175.9837 deg

Mean anomaly: 184.1582 deg

Mean motion: 14.42195001 rev/day

Mean motion (dot): 0.00000649 rev/day2

B* drag term: 0.0002039 1/REarth

Two-line elements (TLE)

Creation date: Dec. 12, 2025, 7:16 a.m.

Reference frame: TEME

Reference center: EARTH

Epoch: Dec. 11, 2025, 8:20 p.m. UTC

TLE line 0: 0 SL-8 R/B

TLE line 1: 1 16864U 86052B 25345.84753685 .00000649 00000-0 20390-3 0 9997

TLE line 2: 2 16864 74.0283 115.5545 0031849 175.9837 184.1582 14.42195001 69115

Live tracking on map

Real-time ground track for satellite SL-8 R/B.

In-orbit conjunctions

A list of the most updated potential collisions computed for object SL-8 R/B.

Target Orbit TCA Probability of collision Miss distance Type
THORAD AGENA D DEB LEO 2025-10-28 21:22:01 0.0003254892 928.0 (m) DEBRIS
COSMOS 886 DEB HEO 2025-03-09 04:52:51 0.000129574 636.0 (m) DEBRIS
CZ-4 DEB SSO 2025-01-24 17:31:43 0.0002099088 40.0 (m) DEBRIS
CZ-6A DEB SSO 2024-10-03 01:47:35 0.0001831288 429.0 (m) DEBRIS

Associated space launch

Military communications satellite

SL-8 R/B was lifted into orbit during the mission ‘Kosmos-3M | Strela-2M 39’, on board a Kosmos-3M space rocket.

The launch took place on July 16, 1986, 4:21 a.m. from 133/3 (133L).

For more information about the launch, click the button.

Launch to space Kosmos-3M | Strela-2M 39
Kosmos-3M | Strela-2M 39

Agency: N/A

Status: Launch Successful

Launch date: July 16, 1986, 4:21 a.m. UTC

Rocket: Kosmos-3M

Launch pad: 133/3 (133L)

Location: Plesetsk Cosmodrome, Russian Federation

...

Latest news about this satellite

There are no fresh news available about this satellite. Check back as we update our databases every day.


Newsletter sign-up

Weekly statistics, charts and insights to help you stay on top of the space industry.